Temp
13 13 13 12 12 13 12 12 12 12 12 12 12 11 11 12 12 12 12 13 12 12 12 12 12 13 13 13 13 13 13 14 13 13 13 13 14 14 13 13 13 13 13 13 14 14 13 13 13 14 14 14 14 14 14 14 14 14 14 14 14 14 14 14 14 14 14 15 15 15 15 15 14 14 14 14 14 14 14 14 14 14 14 15 15
12 12 12 12 12 12 12 11 11 11 11 11 11 11 11 12 12 12 12 12 11 11 11 11 12 12 13 12 13 13 13 13 13 13 13 13 13 13 13 13 13 13 13 13 13 13 13 13 13 13 14 14 14 14 14 14 14 14 14 14 14 14 14 14 14 14 14 14 14 14 15 15 14 14 14 14 14 14 14 14 14 14 15 15 15
12 12 11 11 11 11 11 11 11 10 10 11 10 11 11 11 12 12 11 11 11 10 10 10 11 12 12 12 12 12 13 13 12 12 13 13 13 13 13 13 13 12 12 12 12 12 12 12 12 13 13 13 13 13 13 13 14 14 14 14 14 14 14 14 13 13 13 14 14 14 14 14 14 14 14 14 14 14 14 14 14 14 15 14 15
11 11 10 10 10 10 10 10 10 10 10 10 10 10 11 11 11 10 10 10 10 10 10 10 10 11 11 10 11 11 12 12 12 12 12 12 13 13 12 12 12 11 11 11 11 11 11 11 11 12 12 13 13 13 13 13 13 13 14 14 14 14 14 14 14 14 14 14 14 14 14 14 14 14 14 14 14 14 14 14 14 14 14 14 14
10 10 10 10 10 10 9 9 10 9 9 9 9 10 10 10 10 9 9 10 10 10 10 10 10 10 10 10 10 11 11 11 11 11 11 11 12 12 12 11 10 10 10 10 10 11 11 11 11 11 11 12 12 13 13 13 13 13 13 13 13 13 14 14 14 13 13 14 14 14 14 14 14 14 14 14 14 14 14 14 14 14 14 13 14
10 9 9 9 9 9 9 9 9 9 9 9 9 9 9 9 9 9 9 9 9 9 9 9 9 9 10 10 10 10 11 11 10 10 10 11 11 11 11 10 9 9 10 10 10 10 10 10 10 10 10 10 11 12 13 13 13 13 13 13 13 13 13 13 13 13 13 13 14 14 14 14 14 14 14 14 14 13 13 13 13 14 13 13 13
9 9 8 8 8 8 8 8 8 8 9 9 9 9 9 9 9 9 8 9 8 9 9 9 9 9 9 10 10 10 11 11 11 10 10 10 10 10 9 9 9 9 9 10 10 9 9 10 10 10 10 10 10 11 12 13 13 13 13 13 13 13 13 13 13 13 13 13 13 13 14 14 13 13 14 14 14 13 13 13 13 13 13 13 13
9 8 8 8 7 7 7 8 8 8 8 9 9 9 9 9 8 8 8 8 9 9 9 9 9 9 9 10 10 10 11 11 11 10 10 10 10 9 8 8 9 9 9 9 9 9 9 9 9 9 10 10 10 11 11 12 12 12 12 13 13 13 13 13 13 13 13 13 13 13 13 13 13 13 13 13 13 13 13 13 13 12 12 13 13
8 8 7 7 7 7 7 8 8 8 8 9 9 9 9 8 8 8 8 8 9 9 9 9 10 10 10 10 10 11 11 10 10 10 9 9 9 8 8 8 8 8 8 8 9 9 9 9 9 9 10 10 10 10 10 10 11 11 11 12 13 13 13 13 13 13 13 13 13 13 13 13 13 13 13 13 13 13 13 13 13 13 12 12 13
8 7 7 7 7 7 7 8 8 8 9 9 9 9 8 8 8 8 8 9 9 9 9 9 9 9 9 9 10 10 9 8 9 9 9 9 8 8 8 9 9 8 8 8 8 8 9 9 9 9 10 10 10 9 10 10 10 10 10 11 11 12 12 12 12 13 13 13 13 13 12 13 13 13 13 13 13 13 13 13 13 12 12 12 12
7 7 7 7 7 7 7 8 8 8 8 8 8 8 8 8 8 8 8 8 8 8 8 8 8 8 8 8 8 8 7 7 8 9 9 8 8 7 7 8 8 8 8 8 8 9 9 9 9 9 9 10 10 9 9 9 9 10 10 10 10 10 11 11 11 12 12 12 12 13 12 12 13 13 13 13 13 13 13 13 12 12 12 12 11
7 7 7 7 7 7 7 7 7 7 8 8 8 8 8 8 8 8 8 8 8 8 8 8 8 7 7 7 7 7 6 7 7 8 8 8 8 7 7 7 7 7 7 7 7 8 8 8 9 9 9 9 9 9 9 9 9 9 9 9 9 9 9 10 10 10 11 11 11 11 11 11 12 12 12 12 12 12 13 13 12 12 12 12 12
7 7 7 7 6 6 6 7 7 7 7 7 7 8 8 8 8 7 7 7 8 8 8 8 8 7 7 7 7 7 6 7 7 8 8 8 8 7 7 6 6 6 6 6 6 6 7 8 8 9 9 9 9 9 9 9 8 8 8 8 8 8 9 9 9 9 9 10 10 9 9 10 10 11 11 12 12 12 12 12 12 12 12 12 12
7 7 7 6 6 6 6 6 6 6 6 7 7 8 8 7 7 7 7 7 8 7 7 7 7 7 7 7 7 7 6 7 7 8 7 7 7 7 7 6 6 5 6 6 6 6 6 6 7 8 8 9 9 9 10 9 8 8 8 8 7 7 8 8 8 8 8 8 8 8 8 9 9 9 10 11 11 12 12 12 12 12 12 12 12
7 7 7 6 6 6 6 6 6 6 6 7 7 7 7 7 7 7 7 7 7 6 6 7 7 7 7 7 7 7 6 7 7 7 7 7 7 7 7 6 6 5 5 6 6 6 6 6 6 6 7 8 8 9 9 9 9 8 8 8 8 7 7 7 7 7 8 8 8 8 8 8 9 9 10 10 10 11 12 12 12 12 12 12 12
7 7 7 7 7 6 6 6 6 6 6 7 7 7 7 7 6 6 7 7 7 6 6 6 6 6 6 6 6 6 6 7 7 7 7 7 6 6 6 6 6 5 5 5 5 6 6 6 6 6 6 7 8 8 8 9 9 8 7 7 8 8 7 7 7 7 8 8 8 8 8 8 9 9 10 10 10 10 11 11 12 12 11 11 11
7 7 7 7 7 6 6 6 6 6 7 7 7 7 7 6 6 6 7 7 6 6 6 6 6 6 6 6 6 6 6 6 7 7 7 7 7 6 6 6 6 5 5 5 5 5 6 6 6 6 6 6 7 7 8 8 8 8 7 6 7 7 7 7 7 8 8 8 8 9 9 9 9 10 10 10 10 10 10 10 10 11 11 11 10
7 7 7 6 6 6 7 7 7 7 7 7 6 6 6 6 6 6 7 6 6 6 6 6 6 6 6 6 6 6 6 6 6 6 7 7 6 6 6 6 6 5 5 5 5 6 6 6 6 6 6 6 6 7 7 7 7 6 6 6 6 6 6 7 7 7 8 8 8 8 8 8 9 9 9 10 10 10 9 8 9 10 11 11 10
7 7 6 6 6 6 7 7 7 7 7 6 6 6 6 6 6 6 7 6 6 6 6 6 6 6 6 6 6 6 6 6 6 6 6 6 6 6 6 6 5 5 5 5 5 5 5 5 5 5 5 6 6 6 6 6 6 6 6 6 6 5 5 6 7 7 7 7 7 7 7 7 7 8 8 8 8 8 8 8 9 9 9 10 10
7 7 6 6 6 6 6 7 7 7 6 6 6 6 6 6 6 6 6 6 6 6 6 6 6 6 6 6 6 6 5 5 6 6 6 6 6 6 6 5 5 5 5 5 5 5 5 5 5 5 5 5 6 6 6 6 6 6 6 5 5 5 5 6 6 6 6 6 6 6 6 6 6 6 7 7 7 7 7 7 8 8 8 8 8
7 7 7 6 6 6 6 6 7 6 6 6 6 6 6 6 6 6 6 6 6 6 6 6 6 5 5 5 5 5 5 5 5 5 5 5 5 5 5 5 5 5 5 5 5 5 5 5 5 5 5 5 5 5 5 6 6 6 6 5 5 5 6 6 6 6 6 6 5 6 6 6 6 6 6 6 6 6 6 6 7 7 7 7 7
7 7 7 6 6 6 6 6 6 6 6 6 6 6 6 6 6 6 6 6 6 6 6 6 6 5 5 5 5 5 5 5 5 5 5 5 5 5 5 5 5 5 5 5 5 5 5 5 5 5 5 5 5 5 5 5 6 6 6 6 6 6 6 6 6 6 6 5 5 5 5 5 5 5 6 6 5 5 6 6 6 6 7 6 6
7 7 7 6 6 6 6 6 6 6 6 6 7 6 6 6 6 6 6 6 6 6 6 6 5 5 5 5 5 5 5 5 5 5 5 5 5 5 5 5 5 5 5 5 5 5 5 5 5 5 5 5 5 5 5 5 5 5 6 5 5 5 5 5 5 5 5 5 5 5 5 5 5 5 5 6 5 5 5 5 6 6 6 6 6
7 7 6 6 6 6 6 6 6 6 6 6 6 6 6 6 6 6 6 6 6 5 5 5 5 5 5 5 5 5 5 5 5 5 5 5 5 5 5 5 5 5 5 4 4 5 5 5 5 5 5 5 5 5 5 5 5 5 5 5 5 5 5 5 5 5 5 5 5 5 5 5 5 5 5 5 6 5 5 5 5 6 6 7 7
7 6 6 6 6 6 6 6 6 6 6 6 6 6 6 6 6 6 6 6 6 5 5 5 5 5 5 5 5 5 5 5 5 5 5 5 4 4 4 4 4 4 4 4 4 5 5 5 5 5 5 5 5 5 5 5 5 5 5 5 5 5 5 5 5 5 5 5 5 5 5 5 5 5 5 6 6 5 5 5 5 5 6 6 6
6 6 6 6 6 6 6 6 6 6 6 6 6 6 6 6 6 6 6 6 6 5 5 5 5 5 5 5 5 5 5 4 4 4 4 4 4 4 4 4 4 4 4 4 4 4 4 5 5 5 5 5 5 5 5 5 5 5 5 5 5 5 5 5 5 5 5 5 5 5 5 5 5 6 6 6 6 5 5 5 5 5 5 5 6
6 5 5 5 5 6 6 5 6 6 6 6 6 6 6 6 6 6 6 6 6 5 5 5 5 5 5 5 5 5 4 4 4 4 4 4 4 4 4 4 3 3 3 4 4 4 4 4 4 5 5 5 5 5 5 5 5 5 5 5 5 5 5 5 5 5 5 5 5 5 5 5 5 6 6 6 5 5 5 5 5 5 5 5 5
6 5 5 5 5 5 6 5 5 6 6 6 6 6 6 6 6 6 6 6 6 5 5 5 5 5 5 5 5 5 4 4 4 4 4 4 4 4 3 3 3 3 3 3 4 4 4 4 4 4 4 5 5 5 5 5 5 5 5 5 5 5 5 5 5 5 5 5 5 5 5 5 5 5 6 5 5 5 5 5 5 5 5 5 4
5 5 5 5 5 5 5 5 5 5 5 6 6 6 6 6 6 6 6 6 6 6 5 5 5 5 5 5 5 4 4 4 4 4 4 4 3 3 3 3 3 3 3 3 4 4 4 4 4 4 4 4 4 4 4 4 5 5 5 5 5 5 5 5 5 5 5 5 5 5 5 5 5 5 5 5 5 5 5 5 5 5 5 5 3
5 5 5 5 5 5 5 5 5 5 6 6 6 5 6 6 6 6 6 6 6 6 5 5 5 5 5 5 4 4 4 4 4 4 4 3 3 3 3 3 3 3 3 3 3 3 4 4 4 4 3 3 3 3 4 4 4 4 4 5 5 5 5 5 5 5 5 5 5 5 5 5 5 5 5 5 5 5 5 5 5 5 5 4 2
5 5 5 5 5 5 5 5 5 5 5 5 5 5 5 5 6 6 6 6 6 5 5 5 5 5 5 4 4 4 4 4 4 4 3 3 3 3 3 3 3 3 3 3 3 3 3 3 3 3 3 3 3 3 3 3 4 4 4 4 4 4 4 5 5 5 5 5 5 5 5 5 5 5 5 5 5 5 4 4 4 4 3 3 2
5 5 5 5 5 5 5 5 5 5 5 5 5 5 5 5 5 5 6 5 5 5 5 5 5 5 5 4 4 4 4 4 4 4 3 3 3 3 3 3 3 3 3 3 3 3 3 3 3 3 3 3 3 3 3 3 3 3 4 4 4 4 4 4 4 5 5 5 5 5 5 5 5 5 5 5 5 4 4 4 3 3 3 2 2
6 5 5 5 5 5 5 5 5 5 5 5 5 5 6 5 5 5 5 5 5 5 5 5 5 5 4 4 4 4 4 4 4 4 4 4 3 3 3 3 3 3 3 3 3 2 2 2 2 2 3 3 3 3 3 3 3 3 3 3 3 4 4 4 4 5 5 5 5 5 5 5 5 5 5 5 4 4 4 3 3 3 3 3 3
6 6 6 5 5 5 5 5 5 5 5 5 5 6 6 5 5 5 5 5 5 5 5 5 5 5 5 4 4 4 4 4 4 4 4 4 4 4 4 3 3 3 3 3 2 2 2 2 2 2 2 2 2 2 2 3 3 3 3 3 3 4 4 4 4 4 4 5 5 5 5 5 5 5 5 5 4 4 4 3 3 3 3 3 2
7 6 6 6 6 5 5 5 5 5 5 5 5 5 5 5 5 5 5 5 5 5 5 5 5 5 5 5 4 4 4 4 4 4 4 4 4 4 4 4 4 3 3 3 2 2 2 2 2 2 2 2 2 2 2 2 2 2 3 3 3 3 4 4 4 4 4 5 5 5 5 5 5 5 5 5 4 4 4 4 3 3 3 3 3
7 6 6 6 6 6 6 5 5 5 5 5 5 5 5 6 5 5 5 5 5 5 5 5 5 5 5 5 5 4 4 4 4 4 4 4 4 4 4 4 4 3 3 3 3 2 2 2 2 2 2 2 2 2 2 2 2 2 2 2 3 3 3 3 3 4 4 4 5 5 5 5 5 5 5 4 4 4 4 4 4 4 3 3 3
7 7 6 6 6 6 6 6 6 5 5 5 5 6 6 6 6 5 5 5 5 5 5 5 5 5 5 5 5 5 5 4 4 4 4 4 4 4 4 4 4 3 3 3 3 3 3 2 2 2 2 2 2 2 2 2 2 2 2 2 2 3 3 3 3 3 4 4 4 4 5 5 5 5 5 5 4 4 4 4 4 4 4 3 3
7 7 6 6 6 6 6 6 5 5 5 5 5 6 6 6 6 6 5 5 5 5 5 5 5 5 5 5 5 5 5 5 5 5 4 4 4 4 4 4 4 4 4 3 3 3 3 3 3 2 2 2 2 2 2 2 2 2 2 2 3 3 3 3 3 3 3 3 4 4 4 5 5 5 5 5 5 4 4 4 4 4 4 4 4
7 7 7 6 6 6 6 6 6 5 5 5 5 6 6 6 6 6 6 5 5 5 5 5 5 5 5 5 5 5 5 5 5 5 5 4 4 4 4 4 4 4 4 4 3 3 3 3 3 3 3 2 2 2 2 2 2 2 2 2 2 3 3 3 3 3 3 3 3 3 4 4 4 5 5 5 5 5 5 4 4 4 4 4 4
7 7 7 6 6 6 6 6 6 6 6 6 6 6 6 6 6 6 6 6 6 6 6 6 6 6 5 5 5 5 5 5 5 5 5 5 4 4 4 4 4 4 4 4 3 3 3 3 3 3 3 2 2 2 2 2 1 2 2 2 2 2 2 2 2 3 3 3 3 3 3 3 4 4 5 5 5 5 5 5 4 4 4 4 4
7 7 7 7 7 7 6 6 6 6 6 6 6 6 6 6 6 6 6 6 6 6 6 6 6 6 6 6 6 6 5 5 5 5 5 5 5 5 4 4 4 4 4 4 4 3 3 3 3 3 3 3 2 2 2 2 2 2 2 2 2 2 2 2 2 2 2 3 3 3 3 3 3 4 4 4 4 5 5 5 4 4 4 4 4
8 7 7 7 7 7 7 7 7 7 7 6 6 6 6 6 6 6 6 6 6 6 6 6 6 6 6 6 6 6 6 6 5 5 5 5 5 5 5 5 4 4 4 4 4 4 3 3 3 3 3 3 3 2 2 2 2 2 2 2 2 2 2 2 2 2 2 2 2 3 3 3 3 3 3 4 4 4 5 5 4 4 4 4 4
8 8 7 7 7 7 7 7 7 7 7 7 7 7 7 7 7 6 6 6 6 6 6 6 6 6 6 6 6 6 6 6 6 6 5 5 5 5 5 5 5 4 4 4 4 4 4 3 3 3 3 3 3 3 3 2 2 2 2 2 2 1 1 1 2 2 2 2 2 3 3 3 3 3 3 3 4 4 4 4 4 4 4 4 4
8 8 7 7 7 7 7 7 7 7 7 7 7 7 7 7 7 7 7 7 7 6 7 7 6 6 6 6 6 6 6 6 6 6 6 6 5 5 5 5 5 5 4 4 4 4 4 4 3 3 3 3 3 3 3 3 3 2 2 2 2 2 1 1 1 1 2 2 2 2 3 3 3 3 3 3 3 4 4 4 4 4 4 4 4
8 7 7 7 7 7 7 7 7 7 7 7 7 7 7 7 7 7 7 7 7 7 7 7 7 6 7 7 7 7 6 6 6 6 6 6 6 6 5 5 5 5 5 5 4 4 4 4 4 3 3 3 3 3 3 3 3 3 2 2 2 2 2 1 1 1 1 1 2 2 2 3 3 3 3 3 3 3 3 3 4 4 4 4 4
8 8 8 7 7 7 7 7 7 7 7 7 7 7 7 7 7 7 7 7 7 7 7 7 7 7 7 7 7 7 7 7 6 6 6 6 6 6 6 5 5 5 5 5 4 4 4 4 4 4 3 3 3 3 3 3 3 3 3 3 2 2 2 2 1 1 1 1 1 2 2 2 2 2 2 2 2 2 3 3 3 3 3 3 3
8 8 8 8 8 8 8 8 7 7 8 8 7 7 7 7 7 7 7 7 7 7 7 7 7 7 7 7 7 7 7 7 7 6 6 6 6 6 6 5 5 5 5 5 5 5 4 4 4 4 4 4 3 3 3 3 3 3 3 3 3 2 2 2 2 2 1 1 1 2 2 2 2 2 2 2 2 2 2 2 3 3 3 3 3
8 8 8 8 8 8 8 8 8 8 8 8 8 7 7 7 7 7 7 7 7 7 8 8 8 8 8 7 7 7 7 7 7 6 6 6 6 6 6 6 5 5 5 5 5 5 5 4 4 4 4 4 4 4 3 3 3 3 3 3 3 3 2 2 2 2 2 2 2 2 2 2 2 1 1 1 1 1 1 2 2 2 2 3 3
8 8 8 7 7 7 8 8 8 8 8 8 8 8 8 8 8 8 8 8 8 8 8 8 8 8 8 8 7 7 7 7 7 7 6 6 6 6 6 6 6 5 5 5 5 5 5 5 5 4 4 4 4 4 4 4 3 3 3 3 3 3 3 3 2 2 2 2 2 2 2 2 1 1 1 0 -0 0 0 1 1 1 2 2 2
8 8 8 8 8 8 8 8 8 8 8 8 8 8 8 8 8 8 8 8 8 8 8 8 8 8 8 7 7 7 7 7 7 7 7 6 6 6 6 6 6 6 5 5 5 5 5 5 5 5 4 4 4 4 4 4 4 3 3 3 3 3 3 3 3 2 2 2 2 2 2 2 1 1 0 -0 -0 -0 -0 0 0 1 1 1 1
8 8 8 8 8 8 8 8 8 8 8 8 8 8 8 8 8 8 8 8 8 8 8 8 8 8 8 8 7 7 7 7 7 7 7 6 6 6 6 6 6 6 5 5 5 5 5 5 5 5 5 5 4 4 4 4 4 4 3 3 3 3 3 3 2 2 2 2 2 2 2 2 2 1 1 0 -0 -0 -0 -0 -0 0 0 0 1
Height
824 824 825 825 826 826 827 828 828 828 828 828 828 827 826 825 824 824 823 822 821 819 818 816 813 811 809 807 805 803 801 800 798 797 795 793 792 790 788 786 785 784 782 781 779 777 775 773 772 770 768 767 765 764 763 761 760 759 759 760 760 761 762 763 764 765 766 766 767 768 770 771 772 773 775 777 779 781 784 786 789 791 793 795 798
827 827 827 827 828 828 828 829 829 830 829 829 828 827 826 825 824 824 823 822 821 819 818 816 814 812 810 808 806 804 802 800 799 798 796 794 793 791 789 787 786 784 783 782 780 778 776 774 772 770 768 767 765 764 763 761 760 759 758 758 758 759 761 762 763 764 766 766 766 767 768 770 770 771 772 774 776 778 780 783 785 787 790 792 793
829 829 829 829 829 829 830 831 830 830 830 829 828 827 826 826 825 824 824 823 822 820 819 817 815 813 811 809 807 805 803 801 800 799 797 796 794 792 791 789 787 786 784 783 781 780 778 776 773 771 769 767 766 765 763 762 760 759 758 757 757 758 759 761 762 764 765 765 765 766 767 768 769 769 770 771 773 775 777 779 781 783 785 787 789
830 830 831 830 831 831 831 832 832 831 830 829 828 828 827 826 825 825 825 824 823 821 819 818 816 814 812 810 808 806 804 802 801 800 799 797 795 794 792 791 789 788 786 785 783 781 779 778 775 772 770 768 767 765 764 762 761 759 758 758 757 758 759 760 761 762 763 764 763 764 766 767 767 768 768 769 771 772 774 776 778 780 782 784 786
832 832 832 832 832 832 833 833 832 832 831 830 829 828 827 827 827 826 826 825 824 822 820 819 817 815 813 811 810 808 806 805 803 801 800 798 797 795 794 792 791 790 788 786 785 783 781 779 777 775 772 770 768 766 764 762 762 760 759 758 758 759 759 759 760 761 762 762 761 762 764 765 766 766 767 768 769 769 771 773 775 777 779 782 785
834 833 834 833 833 834 834 834 833 832 831 830 829 829 828 828 828 828 828 826 825 823 821 820 818 817 815 813 812 810 809 807 805 804 802 800 799 797 795 794 793 792 790 788 786 784 782 781 779 777 774 772 770 767 765 763 762 762 761 760 760 760 760 760 760 761 761 760 760 761 762 763 764 764 764 765 766 767 769 771 773 775 777 778 782
835 835 835 834 834 834 834 834 833 832 831 830 830 830 830 830 829 829 829 827 826 824 822 821 820 818 817 815 814 813 811 809 808 806 805 803 801 799 798 797 795 794 792 790 788 786 784 783 781 778 776 774 772 769 767 765 764 763 762 761 761 760 760 760 760 760 760 760 760 761 762 762 763 763 763 764 765 766 767 769 771 773 774 776 778
835 836 836 835 835 835 834 834 833 832 832 831 831 831 831 831 830 830 829 828 826 825 824 823 821 820 819 817 816 814 812 810 809 808 807 806 804 802 801 800 798 796 795 793 790 788 787 785 783 781 779 777 775 772 769 767 765 764 763 762 761 761 760 760 760 760 760 761 761 761 761 762 762 762 762 763 764 764 765 767 768 769 770 773 776
836 836 836 836 835 835 834 834 833 833 833 832 832 832 832 832 831 830 829 828 827 827 825 824 823 821 820 819 817 816 814 813 812 811 810 808 806 805 804 802 800 799 797 796 794 791 789 787 785 784 782 779 777 775 772 770 768 766 764 763 762 761 761 760 760 760 761 761 761 761 761 761 761 761 762 762 762 762 764 765 766 767 769 771 773
837 837 836 836 835 835 835 834 834 834 833 833 833 833 833 833 832 831 830 829 829 828 827 825 824 823 822 820 819 818 817 816 816 815 812 811 809 808 806 805 803 801 800 798 797 795 793 791 789 787 784 781 779 777 775 774 772 770 767 765 763 762 761 761 761 761 761 761 761 761 761 760 760 761 761 761 762 762 763 764 764 766 768 770 772
837 837 836 836 836 836 836 835 835 835 834 834 834 834 834 833 833 832 831 831 831 830 828 827 826 825 824 823 822 821 821 820 819 818 815 813 812 810 809 807 805 804 802 801 800 798 795 794 792 789 786 784 782 781 779 777 775 773 771 769 766 764 763 763 762 762 762 762 762 761 761 761 761 760 760 760 761 761 762 762 763 765 766 768 769
838 837 837 837 837 837 836 836 836 836 835 835 835 835 835 834 834 834 833 833 833 832 831 830 829 828 827 826 825 824 825 824 822 820 818 816 815 813 812 810 809 807 805 804 802 800 798 796 794 792 790 788 786 784 782 781 779 776 774 772 770 768 767 766 765 765 764 764 764 763 763 763 762 762 761 761 760 760 760 761 761 762 763 765 766
838 838 838 838 838 838 837 837 837 837 837 837 836 837 836 836 836 836 836 836 835 834 833 833 832 831 830 829 828 828 828 827 826 824 822 820 818 816 815 813 812 811 809 807 806 804 801 799 796 794 793 791 789 786 785 783 781 779 777 774 773 772 770 769 769 768 768 767 767 767 766 765 764 763 762 762 761 761 760 760 760 760 761 762 763
838 838 839 839 839 839 838 838 838 838 838 838 838 838 838 838 838 839 839 838 837 836 836 835 835 834 833 832 832 831 831 830 829 827 825 824 822 820 818 817 816 814 813 811 809 807 805 803 801 799 796 794 792 790 788 786 784 782 780 777 776 775 774 772 772 772 771 771 770 770 769 768 766 765 763 762 761 761 760 760 759 759 760 760 761
838 839 839 840 840 840 839 839 839 840 840 840 839 840 840 840 841 841 841 840 840 839 839 838 838 837 836 836 834 834 834 833 832 830 828 827 825 823 821 820 819 817 816 815 813 811 810 807 805 803 801 798 796 794 792 790 787 785 784 782 781 780 778 778 777 776 774 774 773 772 772 770 769 767 764 762 761 760 760 759 759 759 758 758 760
839 839 840 840 841 841 841 841 841 841 841 841 841 842 842 843 843 843 843 843 842 842 841 841 841 840 839 839 837 837 837 837 835 833 831 830 828 826 824 823 822 820 819 818 817 815 813 811 809 807 805 803 801 798 796 793 790 789 788 787 786 784 784 784 783 781 779 778 776 775 774 773 771 768 766 764 762 760 759 759 759 759 758 757 758
839 840 840 841 842 843 843 843 843 843 843 843 843 844 845 845 846 846 845 845 845 845 844 844 843 843 842 841 840 840 840 840 839 837 835 833 831 829 828 826 825 824 823 822 821 819 817 815 813 811 809 807 805 802 799 796 794 793 792 791 789 787 787 788 786 785 784 782 780 778 777 775 772 770 768 766 764 762 761 762 761 760 758 758 760
840 840 842 843 844 845 845 844 844 844 844 845 846 847 847 847 848 848 848 847 847 847 847 846 846 845 845 844 844 843 843 843 842 840 838 836 834 832 831 829 828 827 826 825 824 823 821 819 817 815 813 812 809 806 803 800 798 797 796 794 792 791 791 791 789 788 786 784 783 781 780 777 775 772 771 769 768 766 766 765 764 762 759 759 760
841 842 843 844 845 846 846 846 846 846 846 847 848 849 849 850 850 850 850 850 850 850 850 849 848 848 848 848 847 846 846 845 845 843 841 839 837 836 834 832 831 830 829 828 827 826 824 823 821 820 818 816 813 810 807 805 803 802 801 798 796 796 796 795 793 790 788 786 785 784 782 781 778 776 774 773 772 771 770 768 766 764 763 762 761
842 843 845 846 847 847 848 847 848 848 849 850 851 851 852 852 852 853 853 853 852 852 852 851 851 851 851 850 850 849 848 848 847 846 844 842 841 839 837 835 834 834 833 831 830 828 827 826 825 824 822 820 817 814 812 810 808 806 804 802 802 802 801 800 797 795 793 791 790 788 787 785 783 780 779 778 777 776 774 772 770 769 768 767 766
844 845 846 847 848 849 849 849 850 850 851 852 853 853 854 854 855 855 855 855 854 854 854 854 853 854 854 853 852 852 851 851 850 849 847 845 844 842 840 839 838 838 836 834 833 832 830 829 828 827 825 823 821 818 816 814 812 811 809 808 808 807 805 803 800 798 796 794 793 791 790 788 787 785 784 783 782 781 779 777 776 774 773 772 771
845 847 848 849 850 850 851 852 852 853 854 854 855 855 856 857 857 857 857 856 856 856 857 857 856 856 856 856 855 855 854 853 852 851 850 848 847 845 843 843 842 841 838 837 836 835 834 833 832 831 829 826 824 822 820 818 816 814 814 813 812 810 807 805 803 801 799 797 796 794 793 792 790 789 789 788 787 786 785 783 782 780 778 777 776
846 848 849 850 851 852 853 854 854 855 856 856 856 857 858 859 859 859 859 858 858 859 859 859 859 858 858 858 858 857 857 856 855 854 853 852 850 848 847 846 845 843 841 840 839 839 838 837 835 834 832 829 827 825 823 821 820 818 817 816 814 812 810 808 806 804 802 801 799 798 797 796 795 794 793 792 792 791 789 788 786 785 783 781 779
847 849 850 851 853 854 855 856 857 858 858 858 858 859 860 861 861 861 861 860 860 861 861 861 861 860 860 860 860 860 859 859 858 857 856 854 853 852 850 849 848 846 844 843 843 842 841 840 838 837 835 832 831 829 826 825 823 822 820 818 816 814 812 810 809 807 805 804 803 802 801 800 799 798 797 796 796 794 793 791 790 788 786 785 782
848 849 851 852 854 855 856 857 859 859 860 860 860 861 862 862 863 863 863 863 862 863 863 863 863 862 862 862 862 862 862 861 860 859 858 857 855 854 853 851 850 848 847 846 845 844 843 842 841 839 837 835 833 831 829 828 827 825 823 821 819 817 815 814 812 810 809 808 807 806 805 804 803 802 801 800 798 797 795 794 793 791 789 788 786
849 851 852 854 855 856 857 859 860 861 861 862 862 864 864 864 865 865 865 865 865 865 865 865 865 865 865 865 865 865 864 863 862 862 861 859 858 856 855 853 852 851 850 849 848 847 845 844 842 841 839 837 836 834 832 831 830 828 826 824 822 820 819 817 816 814 813 812 811 810 809 808 807 805 803 802 800 798 797 796 795 795 793 792 790
850 851 853 855 856 857 859 860 861 862 863 864 865 866 866 866 866 867 867 867 867 867 867 867 867 867 867 867 867 867 866 865 865 864 863 862 860 859 857 856 854 853 852 851 850 849 848 846 845 843 842 840 838 837 835 834 832 830 828 827 826 824 823 821 820 818 817 816 815 814 813 811 809 807 805 804 802 801 801 800 798 798 797 796 794
851 853 854 856 857 859 860 861 862 863 865 866 867 868 868 869 868 869 869 869 869 869 868 869 869 869 869 869 869 869 868 868 867 866 865 864 863 861 860 858 857 856 855 854 853 852 850 848 846 845 843 841 840 838 837 836 834 833 832 830 829 828 826 825 823 821 820 819 818 817 815 813 811 810 808 806 805 804 804 802 802 801 800 799 798
852 854 856 857 859 861 862 863 864 865 866 867 868 869 870 871 870 870 871 871 871 871 870 870 871 871 871 871 871 870 870 870 869 869 868 867 866 864 862 861 860 859 858 857 855 852 850 848 847 846 845 843 842 841 840 839 837 836 835 834 832 831 829 827 826 824 823 822 820 819 817 816 814 813 811 809 808 807 807 805 805 805 804 803 802
854 856 857 859 861 862 863 865 865 866 867 868 870 871 872 872 873 872 873 873 873 873 872 872 872 873 873 873 873 872 872 872 872 871 870 869 868 867 865 864 863 862 861 859 856 853 852 851 850 849 848 846 845 844 843 842 841 839 838 837 835 833 832 830 829 828 827 825 824 822 820 819 817 816 814 813 812 811 810 809 808 808 807 807 807
855 857 859 861 862 863 864 866 867 868 870 870 871 871 872 873 874 874 874 874 874 874 874 874 874 875 875 875 874 874 874 874 874 873 872 871 870 869 867 866 865 864 863 860 857 855 855 854 853 853 852 850 849 848 847 846 845 843 842 840 838 836 835 833 832 831 830 828 827 825 824 822 821 820 818 817 816 815 814 813 813 812 812 812 812
857 859 861 862 864 865 866 867 868 870 871 872 873 873 873 873 874 875 876 876 876 876 876 876 876 877 877 876 876 876 876 876 875 874 874 873 872 870 869 868 867 866 865 861 859 858 859 858 857 856 855 854 853 852 851 849 848 847 845 843 841 840 838 837 836 834 833 831 830 828 827 826 824 823 822 821 819 818 817 817 817 817 817 817 817
858 860 862 863 865 866 867 869 870 872 873 874 874 874 875 875 875 876 877 877 877 878 878 878 878 878 878 878 878 878 877 877 876 876 875 874 873 872 871 870 868 868 866 863 861 861 861 860 860 859 858 857 856 855 854 853 851 850 848 847 845 844 842 841 839 837 835 834 833 832 830 829 828 827 826 824 823 822 821 821 821 821 821 822 822
860 861 863 864 865 867 869 870 872 873 874 875 876 876 877 877 877 877 877 877 878 879 879 880 880 880 880 880 880 879 879 879 878 877 876 876 875 874 873 871 870 869 867 865 864 864 864 863 862 862 861 860 859 858 857 855 854 853 851 850 849 847 845 844 842 840 838 837 836 835 833 832 831 830 829 828 827 826 825 824 824 824 825 825 826
862 863 864 866 867 868 870 872 873 874 875 876 877 878 879 879 879 879 878 878 879 879 880 881 881 881 881 881 881 881 881 880 880 879 878 877 877 876 874 872 871 870 869 867 867 867 866 865 865 864 863 862 861 860 859 858 856 855 854 852 851 849 848 846 844 843 841 840 839 837 836 835 834 833 832 831 830 829 829 828 828 828 828 828 828
863 864 866 867 868 870 871 873 874 875 877 878 879 879 880 880 880 880 880 880 880 881 881 882 882 882 883 882 882 882 882 881 881 880 879 879 878 877 875 873 873 872 871 870 869 869 868 867 867 866 865 864 863 862 861 860 859 857 856 855 853 852 850 848 847 846 844 843 841 840 839 838 837 836 835 834 834 833 832 832 831 831 831 831 831
863 865 866 868 869 871 872 874 875 876 878 879 879 880 880 881 881 881 881 881 882 882 882 883 883 883 883 883 883 883 883 883 882 881 881 880 879 878 876 875 875 874 873 872 872 871 870 869 868 868 867 866 865 864 863 862 860 859 858 856 855 853 852 851 850 848 847 845 844 843 842 841 840 839 838 837 836 836 835 835 834 834 833 833 833
864 865 867 869 870 872 873 875 876 877 878 879 880 880 881 881 881 882 882 882 883 883 884 884 884 884 884 884 884 884 884 884 883 882 882 881 880 879 878 877 877 876 875 875 874 873 872 871 870 869 868 867 866 866 864 863 862 861 859 858 856 855 854 853 851 850 849 848 846 845 844 843 842 841 840 840 839 838 838 837 837 836 836 835 835
864 866 868 869 871 872 874 875 876 877 878 879 880 880 881 881 882 882 882 883 884 884 884 885 885 885 885 885 885 885 884 884 883 883 882 882 881 880 880 879 878 877 877 876 876 875 874 873 872 871 870 869 868 867 866 865 863 862 860 859 858 856 855 854 853 852 851 849 849 847 846 845 844 843 842 842 841 840 840 839 839 838 838 837 837
864 866 868 869 871 873 874 876 877 878 878 879 880 880 881 881 882 882 883 883 884 884 885 885 885 885 885 885 885 885 885 884 884 883 883 882 882 881 881 880 879 879 878 878 877 876 875 875 874 873 872 870 869 868 867 866 865 863 862 860 859 858 857 855 854 853 852 851 850 849 848 847 846 845 844 843 842 842 842 841 841 840 839 839 839
864 866 867 869 871 872 874 876 877 877 878 879 879 880 881 881 882 882 883 883 884 884 885 885 885 886 886 885 885 885 885 885 884 884 883 883 882 882 881 881 880 880 879 879 878 877 877 876 875 874 873 872 871 869 868 867 866 864 863 862 860 859 858 857 856 855 853 852 851 850 850 849 848 846 845 844 844 844 843 843 842 842 841 841 840
864 865 867 869 871 872 874 875 876 877 878 879 879 880 880 881 882 882 883 883 884 884 884 885 885 885 885 885 885 885 885 884 884 884 883 883 882 882 881 881 881 880 880 879 878 878 877 877 876 875 874 873 872 871 870 869 867 866 864 863 862 860 859 858 857 856 855 853 852 851 851 850 849 848 847 846 845 844 844 844 843 843 843 842 842
863 865 867 869 870 872 873 875 876 877 877 878 879 879 880 881 882 882 883 883 884 884 884 884 884 884 885 885 884 884 884 884 884 883 883 883 882 882 881 881 881 880 880 879 879 878 878 877 877 876 875 874 873 872 871 870 868 867 866 864 863 862 860 859 858 857 855 854 853 852 851 851 850 849 848 847 846 846 845 845 844 844 844 843 843
863 865 867 869 870 872 873 874 875 876 876 877 878 879 880 881 881 882 882 883 883 883 883 883 884 884 884 884 884 884 883 883 883 883 883 882 882 881 881 881 880 880 879 879 879 878 878 877 877 876 876 875 874 873 872 871 869 868 867 866 864 863 862 860 859 858 856 855 854 853 852 851 850 850 849 848 847 847 846 845 845 845 844 844 844
863 865 867 868 870 871 872 873 875 875 876 877 877 878 879 880 880 881 881 882 882 882 882 882 883 883 882 882 882 882 882 882 882 882 882 881 881 881 880 880 880 879 879 879 878 878 878 877 877 876 876 875 874 873 872 871 870 869 868 867 865 864 863 861 860 859 858 856 855 854 853 852 851 850 850 849 848 848 847 847 846 845 845 845 845
863 865 866 868 869 870 871 873 874 874 875 876 876 877 878 879 879 880 880 881 881 881 881 881 881 881 881 881 881 881 881 881 881 881 881 880 880 880 879 879 879 878 878 878 878 877 877 877 876 876 875 875 874 873 872 871 871 869 868 867 866 865 864 863 861 860 858 857 856 855 853 852 851 850 850 849 849 848 848 847 847 846 846 845 845
863 864 866 867 868 869 871 871 872 873 874 875 875 876 877 878 878 879 879 879 880 879 879 879 879 879 879 879 879 879 880 879 879 879 879 879 879 879 879 878 878 878 877 877 877 876 876 876 875 875 874 874 873 873 872 871 870 869 869 868 867 866 864 863 862 861 859 858 856 855 854 852 851 850 850 849 849 848 848 848 847 847 846 846 845
862 864 865 866 867 869 870 870 871 872 873 873 874 875 876 876 877 877 878 878 878 878 878 878 877 877 877 878 878 878 878 878 878 878 878 878 878 878 877 877 877 876 876 876 876 875 875 875 874 874 873 873 872 872 871 870 870 869 868 867 867 866 865 864 862 861 860 858 857 856 854 853 852 851 850 849 849 848 848 848 847 847 846 846 846
862 863 864 865 866 867 868 869 870 870 871 872 873 874 874 875 875 876 876 876 876 876 876 876 876 876 876 876 876 876 876 876 876 876 876 876 876 876 876 876 875 875 875 875 874 874 874 873 873 872 872 871 871 870 870 869 869 868 867 867 866 865 864 864 863 861 860 859 858 856 855 853 852 851 850 850 849 849 848 848 847 847 846 846 846
861 862 863 864 865 866 867 868 868 869 870 871 871 872 872 873 873 873 874 874 874 874 874 874 874 874 874 874 874 875 875 875 874 874 874 874 874 874 874 874 874 873 873 873 873 873 872 872 871 871 870 870 869 869 868 868 868 867 866 866 865 864 864 863 862 861 860 859 858 857 855 854 853 852 851 850 849 849 848 848 847 847 846 846 845
859 860 861 862 863 864 865 866 866 867 868 869 869 870 870 871 871 871 871 871 871 872 872 872 872 872 872 872 873 873 873 873 873 872 872 872 872 872 872 872 872 872 872 871 871 871 870 870 870 869 869 868 868 867 867 866 866 865 865 864 864 863 863 862 861 861 860 859 858 857 855 854 853 852 851 850 849 848 848 847 847 846 846 845 845
Wind_Speed
6 6 5 5 4 3 2 3 3 3 2 4 4 4 4 7 9 11 12 11 12 13 13 14 14 15 17 18 19 19 19 19 20 21 22 21 21 21 23 23 22 22 21 20 22 21 19 19 19 18 17 16 16 17 16 17 21 25 26 25 24 25 25 19 10 6 10 16 19 21 25 25 25 29 33 34 34 35 35 35 36 36 36 37 36
4 4 3 4 4 4 3 2 2 2 2 3 3 4 7 9 9 10 10 10 12 14 15 16 16 17 19 20 21 20 20 19 19 21 22 22 22 22 22 23 23 23 22 22 23 23 21 20 19 19 18 17 16 17 17 15 15 16 20 22 22 22 22 19 13 7 7 12 14 16 19 22 23 26 30 33 34 35 34 34 36 36 36 37 38
3 3 4 4 5 5 4 3 4 4 5 6 7 9 10 10 10 10 10 10 11 14 16 18 18 19 21 22 22 21 20 19 19 21 22 22 22 22 21 22 23 23 23 23 23 23 22 22 22 20 18 17 17 18 18 16 15 14 13 16 18 19 20 19 16 11 8 8 10 12 14 18 22 25 28 32 33 33 34 35 36 36 36 37 39
7 7 7 8 8 7 7 7 8 9 10 10 11 11 11 11 11 11 12 12 12 14 18 19 19 22 23 25 25 23 21 20 20 22 22 21 20 20 20 21 21 22 22 23 24 24 23 24 26 24 20 19 19 19 19 17 15 13 11 13 15 16 17 18 18 15 12 10 10 12 13 15 20 23 25 29 31 32 33 33 34 36 36 36 37
8 8 9 9 9 9 9 10 10 11 12 12 12 12 11 11 13 14 14 15 15 17 20 21 23 25 26 28 28 26 24 22 22 22 21 20 19 18 19 20 21 23 23 23 24 24 24 25 26 27 25 23 22 21 20 19 16 12 9 9 11 13 15 16 18 17 14 13 12 13 14 15 19 22 25 26 26 27 30 31 33 34 34 34 34
9 10 10 11 11 12 12 12 12 13 13 13 12 12 12 13 15 16 16 17 19 20 22 24 26 27 28 29 29 29 28 26 25 25 24 23 23 23 23 24 25 26 26 25 24 24 24 25 25 26 27 28 26 23 20 19 17 15 11 9 8 11 14 14 14 14 15 14 13 13 14 15 16 19 23 25 24 23 25 28 30 32 33 32 33
11 12 12 12 13 14 14 13 14 14 14 14 13 13 14 15 16 17 18 19 20 21 24 26 27 28 29 29 30 30 30 29 29 29 29 28 29 30 30 30 30 31 30 29 26 25 24 25 25 26 26 28 30 27 23 20 17 15 13 11 9 9 12 12 11 11 12 11 11 12 14 14 14 13 17 22 22 22 24 23 22 26 30 31 31
12 13 13 14 15 15 15 14 14 14 14 14 14 15 16 16 17 18 19 20 21 22 25 26 26 28 29 29 29 29 30 31 30 30 30 30 31 32 32 32 32 33 34 33 31 30 29 27 27 27 25 26 29 28 26 23 18 15 13 12 10 8 8 9 9 10 10 10 10 12 12 13 13 12 13 18 19 20 25 25 22 24 28 29 31
13 14 15 15 15 15 14 15 15 15 15 15 16 17 18 18 19 20 21 22 22 23 25 26 27 28 28 29 29 29 30 31 30 29 30 31 32 33 33 33 34 33 33 34 35 35 35 33 32 30 27 27 29 29 28 25 23 21 18 14 11 8 7 7 7 8 10 11 11 11 11 11 13 13 13 17 18 17 21 24 23 24 26 26 28
14 15 15 15 15 15 15 16 16 16 17 18 19 20 20 21 22 23 23 24 24 25 26 27 28 28 29 29 29 29 30 29 28 28 29 30 31 32 33 36 36 35 35 34 34 35 37 36 35 32 30 30 31 31 30 29 28 27 25 23 19 14 11 9 7 7 9 10 9 9 9 10 13 16 15 17 19 17 19 23 22 21 22 20 20
15 15 15 16 15 15 16 17 18 19 20 21 21 22 22 23 24 25 25 26 26 26 27 28 29 29 29 29 29 29 29 27 27 28 29 30 31 31 34 36 37 37 37 36 35 36 37 37 36 35 33 31 31 31 31 31 32 32 31 30 29 26 23 20 16 11 7 8 8 7 7 9 12 15 16 17 17 17 20 24 22 20 20 16 13
16 16 17 17 17 17 18 19 20 21 22 22 23 23 23 24 25 26 26 27 27 27 28 29 29 29 29 30 30 29 28 26 26 28 29 30 31 32 35 37 38 39 38 38 38 37 38 37 36 37 35 31 29 29 29 30 31 33 34 35 35 34 32 30 27 22 17 13 11 10 9 9 10 10 12 14 15 17 19 22 24 24 23 19 14
17 17 18 18 18 18 20 21 22 22 22 23 23 23 24 25 26 27 27 27 28 29 30 31 31 31 31 31 31 29 28 27 27 28 30 31 33 34 36 37 39 40 40 39 39 38 39 39 38 38 36 33 31 29 27 28 30 32 34 36 38 38 37 35 32 29 26 23 21 21 20 16 14 13 12 13 15 15 16 19 22 23 22 21 18
18 19 18 18 17 18 20 22 23 23 23 24 24 25 26 27 27 27 28 29 30 31 32 33 33 34 33 33 32 31 29 28 27 29 31 32 33 35 37 37 38 39 40 40 40 39 39 40 39 38 37 36 35 31 28 28 30 33 35 36 38 39 39 39 37 35 33 31 29 27 26 23 20 16 12 11 14 16 17 19 21 22 22 22 20
19 19 18 18 18 18 20 22 23 23 24 25 26 27 27 28 28 28 29 30 31 32 33 34 34 35 34 34 35 33 31 28 28 29 31 32 33 35 36 37 38 39 39 40 41 40 39 39 39 39 38 37 35 33 31 30 31 33 35 36 36 37 38 38 38 37 37 35 34 33 31 29 26 22 18 12 11 14 18 19 20 22 24 22 20
19 19 19 18 18 19 20 22 23 24 25 26 27 28 28 28 28 29 30 32 32 32 33 34 34 34 35 35 36 35 33 31 30 30 31 32 34 35 36 37 38 38 39 39 40 41 40 40 39 39 38 38 36 34 33 32 33 35 34 34 35 35 34 34 34 36 36 35 35 35 35 34 32 31 28 23 17 12 13 15 15 17 17 15 15
19 19 19 18 18 18 19 21 23 24 25 26 27 27 27 28 28 29 31 32 33 33 34 34 34 34 35 35 35 35 34 33 32 32 32 33 34 35 36 36 37 37 37 37 38 40 40 41 40 39 39 38 36 35 35 34 35 36 35 35 36 36 34 32 32 33 33 33 34 33 33 35 36 36 36 35 32 21 11 9 8 12 15 9 7
20 20 20 19 18 18 19 21 23 24 25 26 27 27 27 28 28 29 31 32 33 33 33 33 33 33 33 33 33 33 32 32 31 31 32 32 34 35 35 36 36 36 36 36 37 38 38 38 39 39 39 38 37 36 36 36 36 36 34 34 36 37 35 33 33 33 33 34 34 35 35 36 36 38 37 38 38 34 29 25 17 4 8 10 8
21 21 20 19 19 19 20 22 24 25 26 27 27 27 27 28 28 29 30 31 31 31 31 32 32 32 32 31 31 32 31 30 30 31 31 31 32 33 34 35 36 35 35 35 36 36 36 37 37 37 38 38 38 38 37 37 37 35 33 33 33 32 31 32 33 34 34 36 37 37 38 38 39 40 39 39 40 39 38 35 29 21 10 2 10
21 21 20 19 19 20 21 23 24 26 26 26 27 27 27 27 28 28 29 29 30 30 31 32 32 31 31 31 31 31 30 30 29 30 31 31 31 31 33 34 34 33 33 34 35 35 35 35 35 35 36 37 37 38 38 38 38 37 35 34 31 28 28 31 32 33 34 35 36 37 37 38 39 39 39 40 40 41 41 39 37 34 28 17 9
21 20 20 19 19 20 22 23 25 25 26 26 26 26 26 26 26 27 28 28 30 31 31 31 31 31 30 30 30 30 29 29 29 29 30 30 30 30 31 32 31 30 32 33 33 34 34 33 33 33 34 36 36 37 37 36 37 37 36 34 30 28 29 31 32 33 35 35 36 38 37 36 36 36 36 37 37 37 38 39 38 37 34 29 22
21 21 21 20 20 21 22 23 24 25 25 25 25 26 25 25 25 26 27 29 30 30 30 30 30 30 29 29 29 28 28 27 27 27 28 28 28 28 29 28 27 29 31 32 32 32 31 31 31 31 32 35 35 36 36 36 36 35 34 33 33 33 33 32 33 35 35 36 36 37 37 36 35 33 33 33 33 32 32 32 33 35 35 32 26
22 22 22 21 21 21 22 23 24 24 24 24 25 25 25 24 25 26 27 29 30 29 28 28 28 28 28 28 27 27 26 26 26 26 26 27 27 27 26 26 26 27 30 31 30 30 29 29 29 30 31 33 34 35 36 36 36 34 33 33 35 36 36 35 35 35 35 36 36 34 34 34 33 32 31 29 28 28 28 27 26 28 30 31 30
23 23 23 22 21 22 22 23 23 23 23 23 24 25 25 25 26 26 27 28 28 27 26 26 27 28 27 26 26 25 25 25 25 25 25 25 25 25 25 25 25 26 28 29 28 28 28 28 28 29 31 32 33 34 35 36 35 34 33 34 35 36 37 36 35 35 35 35 34 32 31 31 31 31 29 26 24 26 26 25 25 24 23 25 29
23 23 23 22 22 22 23 23 23 23 23 23 24 24 25 25 26 26 26 26 27 26 25 25 26 27 26 26 25 25 24 24 24 24 24 24 23 23 23 23 23 24 25 26 25 25 25 26 26 28 29 31 32 33 34 35 34 33 33 34 34 35 35 35 35 35 34 33 32 31 31 30 29 30 29 24 22 24 25 24 24 23 22 22 26
23 23 23 23 23 23 24 24 24 23 23 23 23 24 24 25 25 25 25 25 25 25 25 25 25 26 25 25 25 24 24 24 24 24 24 24 24 23 22 22 22 23 24 24 24 24 25 25 26 27 28 30 31 33 33 33 33 33 33 33 33 34 34 34 34 33 31 30 30 30 30 29 27 28 29 26 24 24 25 23 22 22 22 22 25
24 24 24 24 24 24 25 25 24 24 24 24 24 24 23 24 24 24 24 24 25 25 25 24 24 24 24 23 23 23 24 24 23 24 24 25 25 24 23 23 22 22 23 24 25 26 27 27 28 28 29 30 31 32 32 32 32 33 32 32 32 31 31 31 31 31 29 29 29 28 28 28 28 28 28 27 24 24 23 22 22 21 21 22 24
25 25 25 25 25 25 25 26 26 26 25 24 24 23 22 23 24 23 22 22 23 24 24 23 22 21 21 21 21 21 21 21 22 22 22 23 24 24 24 24 24 23 23 24 25 28 29 30 31 32 33 34 34 34 33 33 32 31 31 30 29 29 29 30 30 30 29 28 28 29 29 29 29 29 28 26 23 23 23 22 21 21 20 21 22
27 26 26 26 26 26 27 27 28 27 27 26 25 24 23 22 22 22 21 20 20 21 21 21 20 19 19 18 18 18 19 19 19 19 19 20 22 23 23 23 23 24 24 24 27 30 32 33 34 34 35 36 36 36 36 35 34 33 32 30 29 27 27 28 29 29 28 28 28 29 30 30 30 30 30 27 23 22 24 22 20 19 19 20 21
28 27 26 27 27 28 28 28 28 27 27 27 26 25 23 21 21 21 20 19 18 18 19 19 18 17 17 17 17 17 17 16 15 14 15 18 20 21 21 21 22 23 23 25 28 31 32 33 33 34 34 35 35 35 35 36 35 35 34 33 32 30 28 27 26 26 26 27 28 28 29 29 29 29 31 29 24 22 24 24 21 19 20 21 22
29 27 27 28 28 29 30 29 28 28 27 26 25 25 23 22 21 20 19 18 18 18 18 18 18 17 17 18 18 17 15 13 12 12 14 16 19 21 20 20 20 21 22 25 29 30 30 30 31 31 32 32 32 32 33 33 34 34 34 35 35 34 31 29 27 25 24 25 27 28 29 29 28 27 29 29 25 22 22 24 22 22 23 24 23
30 29 28 28 29 29 30 29 28 27 26 24 24 24 24 23 21 20 19 18 18 18 18 18 18 17 17 17 18 18 17 14 13 13 14 16 18 20 21 21 20 20 21 24 28 28 27 28 28 28 29 29 30 30 31 31 32 32 33 34 34 35 34 32 28 24 23 24 25 27 28 29 27 25 26 28 27 23 21 23 23 23 24 24 23
31 30 29 29 29 29 29 28 27 26 24 23 22 22 23 22 21 20 19 18 18 17 17 17 17 17 17 16 17 17 18 17 17 16 16 17 18 20 21 22 22 22 23 25 26 25 25 25 25 25 25 26 26 27 27 28 29 30 31 31 32 32 33 32 29 26 24 22 23 24 26 27 27 25 24 25 26 24 21 20 20 21 23 23 22
29 29 29 29 29 28 27 26 25 23 22 22 21 21 20 20 20 20 19 19 18 17 16 16 16 16 16 16 16 16 17 19 19 19 19 19 20 20 22 24 24 24 25 25 24 23 22 23 23 23 23 23 24 24 25 25 26 27 28 28 28 29 29 30 30 29 27 24 23 23 24 25 25 25 23 23 24 25 23 21 19 18 18 18 18
27 27 27 26 27 26 25 24 23 22 21 20 19 19 19 18 18 17 18 18 18 17 15 15 14 15 15 16 16 16 16 17 18 19 19 19 20 21 24 26 27 26 26 25 22 21 20 20 20 20 20 21 21 22 22 23 23 24 25 25 26 27 28 28 29 29 28 27 26 24 23 22 23 23 22 21 21 22 22 22 20 18 16 14 13
27 26 25 24 24 24 23 22 21 20 19 18 17 17 17 16 16 15 15 16 16 15 14 13 13 13 13 14 14 14 14 15 16 17 17 18 19 21 24 26 26 25 25 24 22 21 19 18 18 18 18 19 20 20 20 21 21 22 22 23 23 24 26 26 27 27 27 27 27 25 23 22 20 20 20 20 19 18 18 18 19 18 17 15 13
26 25 24 23 22 21 21 20 19 18 17 17 17 17 16 15 14 14 14 14 14 13 13 12 11 11 11 11 11 12 12 13 13 14 15 16 17 20 22 22 22 23 23 23 23 23 22 20 18 17 17 17 18 19 19 20 20 21 21 21 22 22 23 23 24 24 24 25 25 25 24 22 19 18 18 18 17 16 15 14 14 15 15 14 13
25 24 23 22 21 20 19 18 17 17 16 16 16 16 16 15 14 13 13 12 12 11 11 10 9 9 9 9 9 9 9 10 11 12 13 13 15 16 18 18 19 20 21 21 22 22 22 21 20 19 18 17 17 18 18 19 20 20 20 20 20 20 20 20 20 21 22 23 23 23 22 21 19 17 16 16 16 15 14 13 12 12 12 12 11
24 22 22 21 20 19 19 18 17 16 16 16 16 16 16 15 14 13 12 11 10 10 9 8 7 7 7 7 7 7 7 8 9 9 10 11 11 12 13 14 15 16 17 18 19 20 20 21 21 20 19 18 17 17 18 18 19 20 20 20 20 20 20 20 19 19 19 20 20 21 21 21 19 16 14 13 14 15 16 15 14 13 11 10 10
24 23 22 21 20 20 19 19 17 17 16 17 17 17 16 15 14 12 11 10 9 8 8 7 6 5 5 4 4 4 4 5 6 7 7 8 8 9 9 10 11 12 13 14 15 16 17 18 19 19 19 18 18 18 18 18 19 19 20 20 20 19 19 20 20 19 18 17 17 18 19 20 20 18 15 13 12 13 14 15 15 14 13 11 9
24 23 22 21 21 20 21 21 20 19 18 17 17 17 16 15 13 12 11 9 8 8 7 6 6 5 4 4 3 2 2 2 3 4 4 5 6 6 7 7 8 8 9 10 11 13 14 14 16 17 18 18 18 18 18 19 19 20 20 20 20 19 19 19 19 19 18 17 16 15 16 18 19 19 18 14 11 10 11 12 13 14 14 11 8
24 24 24 23 22 21 21 22 21 20 19 18 18 17 16 15 14 13 11 10 9 8 7 7 6 5 5 4 4 3 2 1 1 1 1 2 3 4 4 5 5 5 6 7 8 10 11 11 12 14 16 17 17 18 18 19 20 20 21 21 20 20 19 19 19 19 18 18 17 15 14 15 16 17 18 16 13 10 10 10 11 12 13 13 11
24 24 24 23 22 21 20 21 21 21 20 19 18 17 16 15 14 13 12 11 10 9 9 8 7 6 6 5 5 4 4 4 3 2 2 2 2 2 2 3 4 4 4 5 6 7 8 9 9 10 12 13 14 15 16 18 19 20 20 21 21 20 20 19 19 19 18 18 18 16 14 13 13 14 15 15 14 12 11 10 10 10 11 12 12
23 24 23 23 22 20 19 19 20 20 20 19 18 17 16 15 15 14 13 12 11 11 10 9 9 8 8 8 7 7 6 5 5 4 4 4 3 3 3 3 3 3 3 4 4 5 6 7 7 8 8 10 11 12 13 15 16 18 19 20 20 20 20 20 19 19 19 18 18 17 15 13 12 11 12 13 13 13 12 12 11 10 9 9 10
23 23 22 22 21 20 19 19 19 19 19 19 18 18 17 16 16 15 14 13 13 12 12 12 11 11 11 10 10 9 9 8 7 6 6 5 4 4 3 3 3 4 4 4 4 4 5 6 7 7 7 7 8 9 10 11 13 15 16 18 19 19 19 19 19 19 18 18 18 17 16 14 12 11 10 10 11 12 12 12 11 11 9 8 7
23 22 22 22 21 20 19 19 20 20 19 18 17 16 16 15 15 15 14 13 13 12 13 13 13 13 13 12 11 11 11 10 10 9 8 7 6 4 4 4 4 5 5 5 5 5 5 6 6 7 7 7 7 7 8 9 10 11 13 15 16 17 18 18 18 18 18 18 17 17 17 15 12 11 10 9 9 9 9 10 10 10 10 9 8
23 23 22 22 21 20 20 19 20 21 20 19 17 16 15 14 14 14 13 13 12 12 12 12 12 13 13 13 12 11 11 11 11 11 10 9 8 6 5 6 6 6 5 6 6 7 7 7 8 8 8 8 7 7 7 7 8 9 10 12 13 15 16 17 18 18 19 18 17 17 17 16 13 11 9 9 8 8 8 8 8 9 9 9 10
23 23 23 22 22 21 20 19 20 21 21 20 19 18 16 15 15 15 14 14 13 12 12 12 12 12 13 13 13 12 12 11 11 12 11 11 10 8 8 8 7 7 7 6 6 6 7 7 8 9 9 9 8 8 7 7 8 8 8 9 11 12 14 15 16 17 18 18 18 17 17 16 14 12 10 9 8 8 8 8 8 8 8 8 9
21 21 20 21 22 22 22 21 21 21 21 21 20 20 18 17 17 17 16 16 16 15 14 14 13 13 13 13 13 13 13 12 12 12 12 12 11 10 10 9 9 9 8 7 7 6 6 6 7 7 7 8 8 8 8 8 8 8 9 9 9 10 11 13 14 15 16 17 17 17 17 16 14 12 10 9 8 8 8 8 8 8 8 8 8
20 19 18 19 19 20 21 22 23 22 22 21 21 20 19 19 19 19 18 18 18 18 17 17 16 15 15 15 14 14 14 14 13 13 13 13 12 12 11 11 10 10 9 9 8 8 7 7 7 7 7 7 7 7 8 8 8 9 9 10 9 9 10 10 12 13 14 14 15 16 16 16 14 13 11 9 8 8 8 8 8 8 9 9 9
21 21 20 20 20 20 21 22 23 24 24 24 23 22 22 22 22 21 20 20 20 19 19 18 18 17 17 17 16 15 15 15 14 13 13 14 14 13 13 13 12 11 11 10 10 9 9 9 9 9 9 9 8 8 8 8 8 9 10 11 11 11 10 10 11 11 12 13 13 13 14 15 14 13 12 10 9 9 9 9 9 9 9 9 9
Wind_Direction
95 98 101 96 90 76 43 22 17 14 41 49 23 7 35 49 49 39 28 23 25 26 27 30 32 30 27 26 27 27 25 21 19 20 22 23 26 24 20 21 22 20 17 12 9 8 6 4 0 356 353 346 337 324 306 283 264 252 242 234 226 221 219 219 227 246 231 221 218 220 223 223 220 220 221 220 220 224 224 225 225 222 218 216 214
90 95 97 87 85 83 64 37 19 21 71 79 64 64 65 60 52 41 33 33 38 38 37 38 38 36 34 32 31 31 30 28 28 30 32 32 32 29 26 25 23 22 19 13 9 8 7 4 2 359 357 355 351 341 332 320 301 276 250 232 225 222 219 220 225 233 227 216 215 220 222 222 221 221 221 220 220 220 219 221 223 222 221 218 215
130 128 125 104 94 87 75 80 97 102 104 100 89 78 71 63 54 46 44 46 49 49 45 41 40 41 39 35 33 32 33 34 36 38 37 36 33 29 28 28 27 25 22 17 13 11 8 5 1 358 356 358 358 352 344 335 327 318 281 242 229 226 223 224 228 230 232 226 218 220 221 219 220 220 220 222 222 218 215 216 219 221 221 220 217
123 118 113 105 100 101 103 108 112 106 96 89 85 80 75 69 61 57 56 55 55 55 51 45 44 44 41 38 36 34 36 39 42 41 37 34 33 29 28 27 26 26 24 21 20 20 16 10 6 5 1 358 358 358 356 347 338 333 306 265 246 234 229 231 234 232 230 229 229 231 230 226 225 226 225 223 220 217 214 212 214 220 221 218 217
120 115 112 109 107 109 111 110 107 101 93 87 83 80 75 71 68 66 65 61 58 57 56 51 49 48 46 43 39 37 38 40 40 39 35 33 33 32 30 29 28 29 29 26 24 25 23 16 12 12 11 7 4 0 357 354 348 341 319 283 257 241 236 233 230 228 226 228 235 239 240 239 236 234 232 223 213 210 211 211 213 217 218 217 217
120 116 115 114 112 111 109 106 102 97 93 88 82 78 75 75 75 72 68 65 61 59 59 57 54 52 49 47 44 42 42 42 40 39 38 38 40 40 39 41 40 38 36 34 29 26 24 21 17 16 16 15 14 8 359 353 349 346 337 319 285 252 240 233 230 230 232 236 241 241 238 238 234 229 227 221 208 199 199 203 209 212 213 213 215
116 113 113 112 111 109 105 102 99 95 92 87 82 80 80 80 81 76 70 67 64 61 61 60 58 56 52 50 49 47 46 46 45 44 43 43 45 44 45 46 47 45 42 39 36 30 23 21 21 20 20 20 21 18 9 1 355 350 342 333 317 277 245 238 239 239 237 236 234 232 230 231 230 223 219 215 208 201 194 189 194 203 208 211 211
116 112 110 109 106 104 102 101 98 94 91 88 85 84 82 80 80 78 73 71 68 66 65 63 62 61 57 55 52 48 47 46 45 46 45 45 47 47 46 46 47 47 43 40 40 37 31 27 26 25 26 26 26 25 22 17 13 7 354 339 326 305 269 250 242 241 248 247 236 228 225 227 229 224 211 201 199 201 197 189 187 192 200 208 211
114 109 106 103 101 101 102 101 98 95 93 91 88 86 83 81 81 79 77 75 73 71 69 66 65 63 61 59 56 52 51 49 48 48 48 48 49 49 47 47 46 44 42 39 39 39 38 35 32 32 35 38 37 35 33 31 29 26 19 8 353 334 315 293 259 246 253 255 249 235 222 221 222 215 202 195 197 201 195 191 193 193 193 198 205
108 105 101 98 100 103 103 100 98 97 95 93 90 88 85 83 82 79 78 76 74 72 70 68 65 63 62 61 60 58 57 55 54 55 55 55 54 52 52 52 50 46 44 39 36 37 38 37 34 34 38 43 43 41 42 44 43 40 37 33 28 19 5 345 313 277 256 252 256 242 220 221 223 218 210 203 205 206 192 189 195 193 185 183 191
106 103 101 101 105 105 103 102 100 98 96 94 92 90 88 85 83 80 78 75 74 72 71 68 65 63 61 61 60 58 56 56 57 59 60 59 58 56 55 54 53 49 47 43 39 38 38 36 34 34 35 39 41 41 42 46 49 50 50 48 45 42 36 28 16 357 325 290 282 269 244 243 240 234 228 217 210 207 199 193 191 184 177 175 175
105 101 98 100 104 104 104 103 100 98 96 95 93 91 89 87 83 81 78 75 73 72 70 68 65 63 61 60 59 58 56 56 58 59 60 60 60 58 56 54 52 50 47 45 42 41 39 37 35 35 33 33 36 39 39 40 44 49 51 52 52 51 48 43 37 29 20 8 2 6 354 322 305 288 264 244 229 217 206 198 191 184 183 184 177
107 102 98 97 98 99 102 102 99 98 96 96 95 93 90 87 83 81 78 76 75 73 70 69 66 63 62 60 60 59 58 58 59 60 60 61 61 60 57 55 53 50 48 46 44 42 41 39 38 37 35 32 33 36 38 39 40 44 46 48 49 49 50 49 46 43 40 37 36 31 22 10 357 341 316 289 266 240 217 204 196 190 188 189 184
108 104 102 100 100 101 103 102 100 98 97 97 95 92 89 86 84 82 81 79 77 74 71 69 68 65 64 62 61 60 59 60 61 63 63 62 62 61 60 57 55 52 50 48 46 44 43 41 39 38 37 37 35 35 37 40 42 43 45 46 45 46 47 48 49 49 49 48 47 40 32 28 23 8 343 308 281 261 240 221 207 199 197 195 191
109 107 106 105 106 107 105 104 102 100 99 97 95 92 90 87 85 83 81 79 77 75 73 71 69 67 65 64 62 60 58 59 61 63 64 63 62 62 60 58 57 54 52 50 49 47 45 44 43 40 39 40 41 40 39 40 43 45 45 45 47 47 46 46 47 51 52 53 53 50 44 38 32 22 9 346 303 275 257 240 223 209 198 186 181
111 110 110 109 111 111 108 107 104 102 100 98 95 92 90 88 86 84 84 82 79 77 75 73 71 69 67 65 64 61 58 57 59 61 62 62 62 61 60 59 57 55 53 52 50 49 47 46 46 44 42 42 43 44 44 44 45 46 44 43 45 48 47 47 49 51 53 53 53 54 51 48 45 39 30 19 1 318 271 254 236 208 182 162 156
115 115 114 114 115 114 112 110 107 104 103 99 96 94 92 91 88 87 86 84 80 78 76 74 72 70 68 66 64 62 59 57 57 58 59 60 61 60 59 59 57 55 53 52 52 51 49 47 46 45 44 43 42 44 46 47 47 46 44 42 42 42 41 43 48 51 52 52 51 51 49 48 47 45 41 36 27 15 357 330 280 205 172 146 136
118 118 116 116 117 117 116 113 109 107 104 101 99 98 96 93 91 89 88 85 82 80 78 76 73 70 68 66 64 62 60 57 55 55 56 57 59 59 59 58 56 55 53 52 52 51 50 49 47 46 45 44 43 43 45 47 47 45 43 43 43 40 36 36 41 44 46 48 48 48 48 48 48 46 44 43 39 35 33 23 2 309 189 174 150
121 120 117 117 118 118 117 115 112 109 106 104 103 101 98 96 94 92 90 87 85 82 79 77 74 70 68 66 63 61 59 56 54 53 52 52 54 56 57 57 55 53 52 51 52 51 50 49 47 46 46 44 44 44 45 47 47 46 44 43 42 39 36 37 39 40 41 42 43 43 43 44 48 49 47 45 44 41 40 36 28 18 9 182 154
124 123 121 118 119 119 118 116 114 112 110 107 105 104 101 100 98 95 93 90 87 83 80 77 74 71 68 65 63 61 59 57 56 53 51 50 50 52 55 55 53 52 51 51 51 50 50 48 47 46 45 45 45 45 45 47 48 47 46 45 42 38 38 41 42 43 43 42 41 41 41 41 43 45 45 43 43 42 41 41 40 35 28 25 55
129 127 125 122 120 119 119 118 116 113 112 111 109 106 104 102 100 98 95 92 88 85 82 79 76 73 69 66 64 62 60 59 57 53 51 49 49 51 53 54 53 52 53 53 52 50 49 48 47 46 46 45 45 44 45 46 47 48 48 47 45 43 43 42 42 43 43 41 39 38 38 39 39 40 40 38 38 39 40 41 42 42 39 32 31
133 132 129 125 122 121 120 119 118 116 115 114 111 107 105 103 102 100 97 94 91 88 84 81 78 75 71 67 65 63 61 60 57 54 52 50 50 51 53 53 53 53 55 54 53 52 50 49 49 48 48 47 46 45 45 45 46 47 48 47 47 46 46 44 42 42 40 37 37 36 35 35 36 36 36 35 34 34 35 38 40 42 44 42 38
136 134 131 127 124 124 123 122 120 119 118 116 112 108 107 106 104 103 100 97 94 90 86 82 80 77 73 69 66 64 62 60 58 56 54 53 53 53 54 55 54 54 56 56 54 53 52 51 51 50 48 48 47 46 45 45 45 46 46 46 46 45 46 45 44 42 40 37 35 33 32 32 33 35 35 33 33 35 35 35 38 39 41 42 42
138 134 132 130 127 127 126 125 123 121 119 117 114 111 110 110 107 105 102 99 95 90 86 84 82 79 75 72 69 66 64 62 59 57 56 54 55 55 55 56 54 54 55 55 53 52 51 51 51 49 47 47 47 47 47 46 45 46 46 46 45 44 43 43 43 42 41 38 35 32 31 31 31 33 35 34 35 37 37 36 37 40 42 42 43
138 134 133 133 131 131 130 127 124 122 120 118 116 114 113 112 109 106 102 99 95 92 89 86 84 81 78 75 72 69 67 65 61 58 55 52 52 53 53 54 53 53 54 54 53 52 50 49 49 48 47 46 46 47 47 46 45 45 45 44 43 42 41 41 42 42 39 37 35 33 32 32 31 32 33 34 37 39 38 38 40 43 46 49 50
137 135 135 135 135 134 132 128 125 123 121 119 116 115 114 112 109 106 103 100 97 95 93 91 87 84 80 77 75 72 68 66 62 57 53 51 50 51 52 54 55 54 55 56 55 54 53 51 51 50 48 47 47 47 47 46 45 45 44 43 42 41 40 39 40 40 39 37 36 34 33 32 33 34 34 34 39 42 42 43 45 45 45 50 54
138 136 136 136 137 136 133 129 126 123 120 119 117 115 114 113 110 107 105 103 101 98 95 92 89 86 83 79 75 71 66 64 61 56 52 50 50 51 53 56 56 55 56 58 58 58 58 56 55 54 52 50 49 48 46 45 44 44 43 43 42 41 41 41 41 40 40 38 37 36 36 34 34 35 34 34 39 42 42 44 48 49 49 54 59
138 136 136 137 137 136 134 130 126 122 119 117 116 115 114 113 111 109 107 104 101 99 95 91 88 87 85 80 75 70 66 63 60 56 51 49 50 52 56 58 57 58 61 63 64 63 62 59 57 54 52 51 49 47 45 45 45 45 43 42 41 41 42 42 41 39 39 39 38 37 37 36 35 34 33 34 39 41 39 41 46 50 53 57 59
136 135 137 137 136 135 134 131 127 122 119 117 115 113 112 111 110 109 107 104 100 96 93 91 88 85 84 81 75 71 68 66 63 59 54 51 52 55 58 61 62 63 65 67 66 63 59 56 53 50 49 48 47 45 45 44 44 45 43 40 39 39 39 39 38 37 37 38 38 36 35 35 36 35 34 36 40 42 40 41 45 49 55 60 59
134 134 136 137 136 136 134 130 127 123 121 119 116 113 112 109 106 105 104 103 100 95 91 90 87 84 83 82 77 71 69 67 64 61 57 55 56 58 62 64 65 65 66 65 64 61 58 54 51 49 47 46 44 43 42 41 41 42 42 40 39 37 37 36 34 35 38 40 39 36 35 35 36 36 36 38 42 44 42 43 47 53 60 65 63
133 133 135 136 137 137 134 131 128 125 123 121 119 116 113 110 106 104 103 103 102 98 94 90 87 84 83 82 80 76 73 71 68 65 61 59 59 60 62 64 64 63 63 63 62 59 56 54 51 48 46 45 43 42 41 40 39 39 39 40 39 38 36 34 31 34 39 41 39 37 35 35 37 38 39 39 41 44 46 46 50 58 65 68 65
135 134 135 136 137 137 135 133 130 128 125 123 122 120 118 115 112 110 109 107 105 102 97 92 88 86 83 83 82 79 76 74 73 72 68 64 61 62 63 64 63 61 61 62 61 57 54 53 51 48 46 44 43 41 40 39 39 38 37 38 38 38 37 35 33 37 42 41 38 36 35 35 37 41 42 41 40 43 48 51 54 60 64 64 61
139 138 137 138 137 137 137 136 134 132 130 127 126 124 123 122 121 119 117 114 109 105 100 93 89 87 86 86 84 79 75 75 77 77 74 69 64 63 63 62 60 57 56 58 58 56 52 52 50 47 45 44 43 41 39 38 37 37 37 36 36 37 38 36 34 37 41 40 36 34 34 34 37 41 43 42 42 44 49 54 58 61 61 60 60
141 141 141 141 141 140 141 141 139 137 134 132 131 129 129 129 128 126 124 121 117 112 107 100 95 91 90 90 88 83 78 77 77 77 75 72 69 68 67 65 61 56 54 54 54 53 50 49 48 46 44 43 41 39 38 36 35 35 35 35 34 35 35 35 35 36 38 36 31 31 33 34 36 39 42 42 43 46 49 52 54 56 59 62 64
144 144 145 145 145 146 146 146 145 143 141 139 139 139 138 136 133 128 126 125 123 121 117 111 104 99 96 95 92 88 84 80 78 76 75 73 72 70 68 66 63 58 55 52 50 48 47 46 46 44 43 41 39 36 35 33 32 32 32 32 32 33 32 33 33 34 36 36 32 29 31 33 34 38 42 43 44 45 47 50 51 51 54 59 61
149 148 149 150 151 152 153 153 152 151 151 151 151 150 148 144 139 134 129 127 126 126 126 122 116 109 104 101 98 94 89 84 80 77 74 72 69 66 65 65 64 60 57 54 51 49 47 45 44 42 40 39 36 33 31 31 30 30 29 27 28 30 31 32 31 30 32 35 35 33 32 32 32 34 37 41 44 47 47 47 46 46 48 49 49
155 155 155 155 155 157 159 161 162 164 164 164 163 162 159 155 151 146 140 136 133 132 131 129 125 120 115 109 103 99 93 87 82 77 74 70 67 64 65 66 65 63 61 58 54 52 50 47 45 41 37 35 33 31 31 30 28 27 26 24 24 25 26 28 29 28 28 31 32 32 32 31 29 28 29 32 37 42 44 44 42 41 41 41 41
162 162 162 161 161 161 163 166 169 172 175 174 174 173 169 165 162 157 152 149 146 142 140 137 132 128 123 117 110 103 96 91 85 79 74 70 66 65 65 66 65 64 62 59 57 55 53 50 47 42 37 33 30 29 28 26 24 24 24 25 24 23 22 23 24 24 25 28 28 28 28 28 26 24 23 25 29 31 33 34 33 31 30 30 31
168 169 171 172 170 169 169 171 172 175 178 179 179 178 176 172 170 167 164 162 160 155 152 150 145 139 131 123 116 109 101 94 88 80 74 70 67 65 64 64 63 63 61 59 57 56 55 52 48 44 39 34 30 28 27 25 23 24 25 26 28 27 25 24 23 22 22 24 25 24 24 22 22 21 22 26 31 31 29 27 25 22 19 18 24
175 176 179 181 181 180 181 181 181 181 181 181 181 180 178 176 174 173 172 171 170 168 166 166 164 160 152 142 131 119 105 93 86 81 75 69 65 62 59 58 58 58 57 56 54 53 53 52 49 45 41 38 35 33 30 28 27 26 26 27 29 29 28 27 26 24 22 20 20 22 22 20 18 19 20 25 32 33 30 27 25 22 20 19 24
180 181 184 185 186 187 188 189 188 186 183 183 183 181 179 178 177 178 180 180 179 181 181 180 182 185 183 179 170 154 131 98 83 78 73 66 60 55 51 50 48 47 47 47 47 46 47 48 48 45 43 43 43 41 37 34 33 31 29 28 28 28 27 26 25 24 23 20 18 18 20 20 19 18 18 20 24 25 24 24 21 19 19 22 25
182 184 185 186 188 190 191 192 191 189 187 188 187 183 181 182 183 185 188 189 190 193 194 193 195 200 203 208 215 224 235 243 275 5 35 44 41 37 37 37 35 33 31 30 33 35 34 37 42 44 43 44 46 46 43 40 37 35 32 30 29 28 26 25 24 22 21 20 19 16 14 15 18 19 18 16 17 17 14 13 13 13 15 19 22
183 184 185 187 189 191 191 193 194 195 195 196 195 190 188 188 190 192 195 198 201 205 209 210 212 215 219 223 229 239 252 258 264 275 286 299 320 344 3 10 9 12 13 12 15 18 18 19 27 34 38 40 42 43 43 40 37 35 33 31 30 29 27 25 23 21 20 19 17 14 10 7 8 14 16 15 16 17 14 8 6 7 9 15 22
185 186 186 188 190 192 194 196 197 199 202 205 205 203 201 202 204 206 209 211 214 219 224 227 229 231 237 241 241 244 252 256 258 264 269 274 281 290 305 323 333 338 341 345 352 357 357 356 0 10 22 29 32 35 37 35 33 31 30 29 29 28 26 25 23 20 18 17 15 12 9 3 358 1 8 12 14 14 13 11 10 10 9 10 18
188 189 189 190 192 195 198 199 198 200 205 209 212 213 213 214 217 220 224 226 230 234 239 242 243 242 244 246 248 250 253 253 254 257 259 261 267 274 277 284 301 310 312 311 312 322 333 334 334 339 351 4 13 19 23 25 26 25 25 24 25 24 24 23 22 19 17 15 13 11 9 5 357 350 352 359 6 8 8 7 7 8 9 8 8
191 192 194 196 199 203 207 206 203 204 209 213 215 216 217 219 221 225 230 234 239 245 249 250 249 246 243 242 245 249 252 252 252 254 255 255 258 260 260 264 275 287 295 296 292 294 301 309 312 318 324 332 343 353 360 5 12 15 16 18 19 20 20 20 20 19 17 14 12 11 9 6 1 352 343 343 349 353 357 360 359 360 1 360 354
198 199 201 205 207 209 212 211 209 210 215 218 219 219 220 222 224 227 232 237 243 250 253 250 246 243 239 237 240 245 250 251 251 251 251 252 252 251 252 258 264 270 280 286 286 287 291 294 297 302 307 312 319 326 330 337 347 357 4 9 11 13 14 15 15 16 17 15 13 12 10 7 4 356 346 342 342 340 342 347 350 351 353 351 346
204 205 207 209 208 209 211 211 210 212 216 220 222 224 225 228 231 235 238 241 244 249 250 246 242 240 238 237 239 242 245 248 249 249 250 251 249 247 249 255 261 266 272 276 277 279 286 292 293 296 298 301 304 308 309 312 319 328 340 351 358 3 7 9 9 11 14 14 13 12 10 9 7 1 353 349 349 348 345 344 342 342 345 344 343
207 209 211 212 212 213 213 211 210 211 215 219 223 226 230 234 239 243 245 247 248 249 248 246 243 242 241 241 241 242 243 244 247 251 253 253 250 246 248 253 260 264 268 269 268 268 275 285 290 293 296 299 300 300 297 294 296 302 312 325 337 345 353 358 1 4 7 10 12 12 10 9 9 6 360 352 348 348 348 345 342 342 341 337 337
213 216 218 219 219 219 219 217 217 219 221 223 226 230 235 241 245 247 249 251 251 249 246 244 244 244 244 244 245 245 245 247 252 257 260 260 257 252 251 254 258 261 264 265 264 260 264 272 279 282 286 291 297 298 294 287 283 284 290 299 311 322 331 339 346 352 356 1 6 9 9 7 7 6 2 353 344 337 335 335 336 339 339 338 338
221 224 225 225 225 224 224 223 223 225 227 228 230 234 240 245 247 249 251 252 251 248 246 245 245 246 246 247 248 249 250 252 256 260 262 263 261 258 256 256 258 258 258 260 259 257 258 264 269 273 275 277 280 286 290 287 281 276 277 283 291 299 308 316 324 333 340 346 352 359 4 5 4 2 1 357 350 342 334 328 324 324 325 325 329